Red Bluff, CA

5:21 PM PST on November 18, 2019 (GMT -0800)
Red Bluff Municipal

Weather History for KRBL - October, 2019

Change the Weather History Date:

Sunday, October 13, 2019

  Actual Average Record
Temperature  
Mean Temperature 62 °F -  
Max Temperature 80 °F 80 °F 100 °F (1991)
Min Temperature 44 °F 52 °F 41 °F (1942)
Degree Days  
Heating Degree Days 4    
Growing Degree Days 12 (Base 50)    
Moisture  
Dew Point 30 °F    
Average Humidity 33    
Maximum Humidity 56    
Minimum Humidity 8    
Precipitation  
Precipitation 0.00 in - - ()
Sea Level Pressure  
Sea Level Pressure 29.85 in    
Wind  
Wind Speed 6 mph (NW)    
Max Wind Speed 9 mph    
Max Gust Speed -    
Visibility 10 miles    
Events      
Averages and records for this station are not official NWS values.
T = Trace of Precipitation, MM = Missing Value Source: NWS Daily Summary

Daily Weather History Graph

Daily Weather History Graph

Search for Another Location

Airport or City:

Astronomy

Oct. 13, 2019 Rise Set
Actual Time 7:17 AM PDT 6:32 PM PDT
Civil Twilight 6:50 AM PDT 6:59 PM PDT
Nautical Twilight 6:18 AM PDT 7:31 PM PDT
Astronomical Twilight 5:47 AM PDT 8:02 PM PDT
Moon 6:57 PM PDT (10/13) 6:56 AM PDT (10/13)
Length of Visible Light 12h 09m
Length of Day
11h 15m
Full, 100% of the Moon is Illuminated
Oct 13
Full
Oct 13
Full
Oct 21
Last Quarter
Oct 27
New
Nov 4
First Quarter

Hourly Weather History & Observations

Time (PDT) Temp. Windchill Dew Point Humidity Pressure Visibility Wind Dir Wind Speed Gust Speed Precip Events Conditions
12:54 AM 50.0 °F - 28.9 °F 44% 29.86 in 4.0 mi WNW 4.6 mph - N/A   Haze
1:54 AM 50.0 °F - 28.9 °F 44% 29.87 in 8.0 mi WNW 5.8 mph - N/A   Clear
2:54 AM 48.9 °F - 28.9 °F 46% 29.87 in 10.0 mi WNW 6.9 mph - N/A   Clear
3:54 AM 48.0 °F - 28.0 °F 46% 29.86 in 10.0 mi WNW 8.1 mph - N/A   Clear
4:54 AM 46.9 °F - 27.0 °F 46% 29.87 in 10.0 mi WNW 6.9 mph - N/A   Clear
5:54 AM 44.1 °F 41.5 °F 28.0 °F 53% 29.87 in 10.0 mi NNW 4.6 mph - N/A   Clear
6:54 AM 45.0 °F 41.8 °F 28.9 °F 53% 29.88 in 10.0 mi NNW 5.8 mph - N/A   Clear
7:54 AM 45.0 °F 40.1 °F 30.0 °F 56% 29.88 in 10.0 mi NW 9.2 mph - N/A   Clear
8:54 AM 55.0 °F - 32.0 °F 42% 29.89 in 10.0 mi NNW 9.2 mph - N/A   Clear
9:54 AM 62.1 °F - 32.0 °F 32% 29.89 in 10.0 mi NNW 9.2 mph - N/A   Clear
10:54 AM 66.9 °F - 32.0 °F 27% 29.88 in 10.0 mi NNW 8.1 mph - N/A   Clear
11:54 AM 73.0 °F - 32.0 °F 22% 29.87 in 10.0 mi NNE 5.8 mph - N/A   Clear
12:54 PM 77.0 °F - 32.0 °F 19% 29.84 in 10.0 mi NE 3.5 mph - N/A   Clear
1:54 PM 78.1 °F - 28.9 °F 17% 29.82 in 10.0 mi Variable 3.5 mph - N/A   Clear
2:54 PM 79.0 °F - 25.0 °F 14% 29.81 in 10.0 mi Calm Calm - N/A   Clear
3:54 PM 79.0 °F - 26.1 °F 14% 29.81 in 10.0 mi SSE 9.2 mph - N/A   Clear
4:54 PM 79.0 °F - 28.0 °F 15% 29.80 in 10.0 mi SSE 9.2 mph - N/A   Clear
5:54 PM 75.9 °F - 28.0 °F 17% 29.81 in 10.0 mi South 6.9 mph - N/A   Clear
6:54 PM 70.0 °F - 30.0 °F 23% 29.81 in 10.0 mi South 4.6 mph - N/A   Clear
7:54 PM 62.1 °F - 32.0 °F 32% 29.83 in 10.0 mi Calm Calm - N/A   Clear
8:54 PM 55.9 °F - 32.0 °F 40% 29.84 in 10.0 mi NNW 3.5 mph - N/A   Clear
9:54 PM 55.0 °F - 32.0 °F 42% 29.85 in 10.0 mi Calm Calm - N/A   Clear
10:54 PM 52.0 °F - 30.9 °F 45% 29.86 in 10.0 mi NW 8.1 mph - N/A   Clear
11:54 PM 51.1 °F - 30.9 °F 46% 29.88 in 10.0 mi NW 5.8 mph - N/A   Clear